This is the latest recevied weather packets stored in our database for station/object KD0SBN-3. If no packets are shown the sender has not sent any weather packets the latest 10 day(s).
| Time | Temp. | Humidity | Pressure | Rain* | Wind** | Luminosity | Snow |
|---|---|---|---|---|---|---|---|
| 1777760490 | 13.33° C | 28% | 1030.1 hPa | 0 mm | - | 123 W/m² | - |
| 1777760186 | 12.22° C | 29% | 1029.7 hPa | 0 mm | - | 242 W/m² | - |
| 1777759884 | 12.78° C | 31% | 1029.8 hPa | 0 mm | - | 343 W/m² | - |
| 1777759580 | 11.67° C | 34% | 1030 hPa | 0 mm | - | 187 W/m² | - |
| 1777759276 | 11.67° C | 34% | 1030 hPa | 0 mm | - | 155 W/m² | - |
| 1777758973 | 11.67° C | 32% | 1030.1 hPa | 0 mm | - | 287 W/m² | - |
| 1777758670 | 11.67° C | 34% | 1030 hPa | 0 mm | - | 372 W/m² | - |
| 1777758367 | 11.67° C | 32% | 1030.2 hPa | 0 mm | - | 406 W/m² | - |
| 1777758064 | 11.67° C | 35% | 1030.1 hPa | 0 mm | - | 644 W/m² | - |
| 1777757761 | 12.22° C | 35% | 1030.2 hPa | 0 mm | - | 607 W/m² | - |
| 1777757459 | 12.22° C | 35% | 1030.2 hPa | 0 mm | - | 648 W/m² | - |
| 1777757158 | 12.22° C | 35% | 1030.2 hPa | 0 mm | - | 659 W/m² | - |
| 1777756855 | 11.67° C | 33% | 1030.5 hPa | 0 mm | - | 693 W/m² | - |
| 1777756550 | 10° C | 36% | 1030.5 hPa | 0 mm | - | 665 W/m² | - |
| 1777756248 | 9.44° C | 33% | 1030.6 hPa | 0 mm | - | 141 W/m² | - |
| 1777755944 | 9.44° C | 34% | 1030.6 hPa | 0 mm | - | 114 W/m² | - |
| 1777755642 | 9.44° C | 33% | 1030.5 hPa | 0 mm | - | 135 W/m² | - |
| 1777755338 | 9.44° C | 33% | 1030.7 hPa | 0 mm | - | 130 W/m² | - |
| 1777755036 | 9.44° C | 33% | 1030.6 hPa | 0 mm | - | 117 W/m² | - |
| 1777754732 | 9.44° C | 34% | 1030.5 hPa | 0 mm | - | 104 W/m² | - |
| 1777754430 | 9.44° C | 34% | 1030.7 hPa | 0 mm | - | 113 W/m² | - |
| 1777754127 | 9.44° C | 34% | 1030.6 hPa | 0 mm | - | 124 W/m² | - |
| 1777753824 | 10° C | 34% | 1030.9 hPa | 0 mm | - | 140 W/m² | - |
| 1777753520 | 10° C | 32% | 1030.9 hPa | 0 mm | - | 156 W/m² | - |
| 1777753219 | 10.56° C | 32% | 1030.6 hPa | 0 mm | - | 177 W/m² | - |
* Rain latest hour (hover to see other rain measurements)
** Current wind speed in m/s (hover to see current wind gust speed)